STARLINK-34935 (65277 NORAD) Tracking and Keplerian Element Data

This shows tracking and keplerian element data for the satellite.

Feedback or suggestion? Click here.




ElementValue
Catalog65277
NameSTARLINK-34935
Epoch Orbit1933
Epoch Day354.13620329
Epoch Year2025
RAAN44.2906
Inclination97.6054
Eccentricity0.000187
Argument of Perigee93.2223
Mean Anonmoly266.9217
Mean Motion15.05684402
Decay Rate0.00011527
L11 65277U 25184E 25354.13620329 .00011527 00000+0 80107-3 0 9996
L22 65277 97.6054 44.2906 0001870 93.2223 266.9217 15.05684402 19336



Live tracking and technical data element details for STARLINK-34935 (NORAD 65277). STARLINK-34935 can be tracked NOW for your location showing map with azimuth and elevation plus other details from your city location.







IsCatalogInMostPopularTable: catalog: 65277, numindb: 6
Update: records affected: 1



GetName: 65277 STARLINK-34935

Hit Count: updated at: Sun, 08 Feb 2026 16:24:05 GMT